Погода в Оранжереях

Россия / Астраханская область     45°50′48″N   47°33′47″E
темп.,
°C
ветер,
м/с
пор.,
м/с
влажн.,
%
обл.,
%
осадки,
мм/ч
давл.,
гПа
погр.,
м
8 марта, пн
пн801:00−1ююз46450 0.0 1022149
04:00−2ююз59550 0.0 1022277
07:00−2ююз510570 0.0 1022299
10:00+2юз79390 0.0 1021812
13:00+5юз68340 0.0 10201341
16:00+6юз57350 0.0 10181432
19:00+3ю7105797 0.0 1018419
22:00+2ююз696098 0.0 1018281
9 марта, вт
вт901:00+1ююз5879100 0.0 1017254
04:00+1юз4781100 0.0 1017200
07:000юз488180 0.0 1016167
10:00+4зюз576576 0.0 1017483
13:00+7зюз794556 0.0 10151597
16:00+8з8114678 0.1 10141891
19:00+5з8126261 0.0 1014820
22:00+4з697159 0.0 1016961
10 марта, ср
ср1001:00+2зсз487494 0.0 1017348
04:000з358148 0.0 1018121
07:000зюз488870 0.0 1019193
10:00+2зсз896181 0.0 10211146
13:00+3зсз8950100 0.1 10211618
16:00+3сз6848100 0.1 10211567
19:00+1ссз5645100 0.0 10221259
22:00−1ссв4549100 0.0 1023704
11 марта, чт
чт1101:00−3ссв4648100 0.0 1023485
04:00−4св5647100 0.0 1023534
07:00−5св5646100 0.0 1023605
10:00−5ссв6737100 0.0 1024709
13:00−2ссв6628100 0.0 10241021
16:00−2ссв6632100 0.0 10241196
19:00−4ссв6637100 0.0 1025917
22:00−5ссв6833100 0.0 1027783
12 марта, пт
пт1201:00−6ссв673385 0.0 1028887
04:00−8ссв573475 0.0 1028870
07:00−9св563998 0.0 1030721
10:00−7ссв443249 0.0 1032784
13:00−5ссв44260 0.0 10321063
16:00−4ссв44230 0.0 10311189
19:00−6с33280 0.0 103184
22:00−7в35370 0.0 1032279